Huvudsida
METAR-TAF:

METAR-TAF

Flygplatser :

Honningsvågs flygplats. Valan

Honningsvåg, Norge

latitud: 71-01N, longitud: 025-59E, höjd: 1 m

Aktuellt väderrapport

Denna rapport gjordes för 3 timmar och 1 minuter sedan, klockan 21:50 UTC
Vind 18 kt från syd
Temperatur 4°C
Fuktighet 81%
Tryck 1009 hPa
Sikt 10 km eller mer
Få moln på en höjd av 1500 ft

METAR: ENHV 142150Z 19018KT 9999 FEW015 04/01 Q1009

Tid: 01:51 (00:51 UTC)


TAF: saknas

Aktuella väderrapporter och prognoser från 4000 flygplatser (METAR- och TAF-rapporter).

De tillgängliga stationerna syns som gula och röda prickar på kartan.

För musen över prickarna för att se namnen på stationerna.

Klicka sedan för att få väderrapporter och prognoser.

För att ändra kartan: Klicka på de gröna knapparna med ett svart kors på för att zooma in; den gröna knappen med ett streck på för att zooma ut; eller på de gröna pilarna för angränsande kartor.


METAR-TAF: